Flag for India Weather past 2 weeks in Gurdaspur, Punjab, India

Now
64 °F

Scattered clouds.


Feels Like: 64 °F
Forecast: 53 / 66 °F
Wind: 1 mph from North

Location: Amritsar Airport

Current Time: Feb 1, 2015 at 1:18:54 PM

Latest Report: Feb 1, 2015 at 12:30 PM


Visibility: 1 mi

Pressure: 30.09 "Hg

Humidity: 60%

Dew point: 50 °F

Location of GurdaspurLocation

Historic Weather in Gurdaspur — Graph

°F

Gurdaspur temperature yesterday

Maximum temperature yesterday: 66 °F (at 3:00 PM)
Minimum temperature yesterday: 41 °F (at 6:00 AM)
Average temperature yesterday: 52 °F

Past Weeks' High & Low Weather Summary

 TemperatureHumidityPressure
High68 °F (Jan 17, 2:00 PM)100% (Jan 17, 9:30 PM)30.24 "Hg (Jan 17, 9:30 PM)
Low34 °F (Jan 28, 8:00 AM)37% (Jan 31, 3:30 PM)30.01 "Hg (Jan 28, 3:30 PM)
Average52 °F82%30.11 "Hg
* Reported Jan 17 11:30 AM — Feb 1 12:00 Noon, Gurdaspur, Weather by CustomWeather, © 2014

Note: Actual official high and low records may vary slightly from our data, if they occured in-between our weather recording intervals... More about our weather records

Advertising

Gurdaspur weather history for previous 24 hours

 ConditionsComfort  
Time TempWeatherWind HumidityBarometerVisibility
12:00 PM
Feb 1
61 °FScattered clouds.2 mph68%30.09 "Hg1 mi
11:30 AM59 °FScattered clouds.3 mph72%30.09 "Hg1 mi
11:00 AM59 °FScattered clouds.No wind68%30.09 "Hg1 mi
10:30 AM55 °FScattered clouds.No wind77%30.09 "Hg1 mi
10:00 AM54 °FFog.No wind77%30.09 "Hg1 mi
9:30 AM52 °FFog.No wind82%30.09 "Hg1 mi
9:00 AM52 °FFog.No wind82%30.09 "Hg1 mi
8:30 AM46 °FFog.No wind93%30.07 "Hg1 mi
8:00 AM45 °FFog.No wind93%30.07 "Hg1 mi
7:30 AM45 °FFog.No wind93%30.07 "Hg1 mi
7:00 AM48 °FFog.No wind82%30.04 "Hg1 mi
6:30 AM48 °FFog.No wind87%30.04 "Hg1 mi
6:00 AM48 °FFog.No wind87%30.04 "Hg1 mi
5:30 AM48 °FFog.No wind87%30.04 "Hg1 mi
4:30 AM48 °FFog.1 mph87%30.04 "Hg1 mi
4:00 AM50 °FFog.1 mph82%30.07 "Hg1 mi
3:00 AM48 °FFog.5 mph87%30.04 "Hg1 mi
2:30 AM46 °FFog.3 mph93%30.07 "Hg1 mi
2:00 AM46 °FFog.No wind93%30.07 "Hg1 mi
11:30 PM
Jan 31
48 °FFog.No wind87%30.07 "Hg1 mi
11:00 PM48 °FFog.No wind87%30.07 "Hg1 mi
10:30 PM48 °FFog.No wind87%30.07 "Hg1 mi
10:00 PM48 °FFog.No wind87%30.04 "Hg1 mi
9:30 PM50 °FFog.No wind82%30.04 "Hg1 mi
8:30 PM52 °FFog.No wind77%30.04 "Hg2 mi
8:00 PM54 °FHaze.No wind72%30.01 "Hg2 mi
7:30 PM54 °FHaze.No wind77%30.01 "Hg2 mi
7:00 PM54 °FHaze.No wind77%30.01 "Hg2 mi
6:30 PM57 °FHaze.No wind67%30.01 "Hg2 mi
6:00 PM61 °FHaze.No wind59%30.01 "Hg2 mi
5:30 PM63 °FHaze.No wind52%30.01 "Hg2 mi
5:00 PM64 °FHaze.6 mph46%30.01 "Hg2 mi
4:30 PM64 °FHaze.6 mph46%30.01 "Hg2 mi
4:00 PM64 °FHaze.6 mph43%30.01 "Hg2 mi
3:30 PM66 °FHaze.8 mph37%30.01 "Hg2 mi
3:00 PM66 °FHaze.8 mph43%30.04 "Hg2 mi
2:30 PM64 °FHaze.8 mph43%30.04 "Hg2 mi
2:00 PM64 °FHaze.8 mph43%30.04 "Hg2 mi
1:30 PM64 °FScattered clouds.6 mph46%30.07 "Hg2 mi
1:00 PM63 °FScattered clouds.6 mph49%30.07 "Hg2 mi
Weather by CustomWeather, © 2014

See weather overviewHow to use our weather pages